SCP
-0 -0 0 0 0 -0 -0 -0 -0 -0 -0 -0 0 0 0 0 0 0 0 0 0 0 0 0 0 -0 0 0 0 0 0 0 0 0 0 0 0 0 0 0 0 0 0
-0 -0 0 0 -0 -0 -0 -0 -0 -0 -0 -0 0 0 0 0 0 0 0 0 0 0 0 0 0 0 0 0 0 0 0 0 0 0 0 0 0 0 0 0 0 0 0
-0 -0 -0 0 -0 -0 -0 -0 0 0 0 0 0 0 0 0 0 0 0 0 0 0 0 0 0 0 0 0 0 0 0 0 0 0 0 0 0 0 0 0 0 0 0
0 0 0 0 0 0 0 0 0 0 0 0 0 0 0 0 0 0 0 0 0 0 0 0 0 0 0 0 0 0 0 0 0 0 0 0 0 0 0 0 0 0 0
0 0 0 -0 0 0 0 0 0 0 0 0 0 0 0 0 0 0 0 0 0 0 0 0 0 0 0 0 0 0 0 0 0 0 0 0 0 0 0 0 0 0 0
0 0 0 0 0 0 0 0 0 0 0 0 0 0 0 0 0 0 0 0 0 0 0 0 0 0 0 0 0 0 0 0 0 0 0 0 0 0 0 0 0 0 0
0 0 0 0 0 0 0 0 0 0 0 0 0 0 0 0 0 0 0 0 0 0 0 0 0 0 0 0 0 0 0 0 0 0 0 0 0 0 0 0 0 0 0
0 0 0 0 0 0 0 0 0 0 0 0 0 0 0 0 0 0 0 0 0 0 0 0 0 0 0 0 0 0 0 0 0 0 0 0 0 0 0 0 0 0 0
0 0 0 0 0 0 0 0 0 0 0 0 0 0 0 0 0 0 0 0 0 0 0 0 0 0 0 0 0 0 0 0 0 0 0 0 0 0 0 0 0 0 0
0 0 0 0 0 0 0 0 0 0 0 0 0 0 0 0 0 0 0 0 0 0 0 0 0 0 0 0 0 0 0 0 0 0 0 0 0 0 0 0 0 0 0
0 0 0 0 0 0 0 0 0 0 0 0 0 0 0 0 0 0 0 0 0 0 0 0 0 0 0 0 0 0 0 0 0 0 0 0 0 0 0 0 0 0 0
0 0 0 0 0 0 0 0 0 0 0 0 0 0 0 0 0 0 0 0 0 0 0 0 0 0 0 0 0 0 0 0 0 0 0 0 0 0 0 0 0 0 0
0 0 0 0 0 0 0 0 0 0 0 0 0 0 0 0 0 0 0 0 0 0 0 0 0 0 0 0 0 0 0 0 0 0 0 0 0 0 0 0 0 0 0
0 0 0 0 0 0 0 0 0 0 0 0 0 0 0 0 0 0 0 0 0 0 0 0 0 0 0 0 0 0 0 0 0 0 0 0 0 0 0 0 0 0 0
0 0 0 0 0 0 0 0 0 0 0 0 0 0 0 0 0 0 0 0 0 0 0 0 0 0 0 0 0 0 0 0 0 0 0 0 0 0 0 0 0 0 0
0 0 0 0 0 0 0 0 0 0 0 0 0 0 0 0 0 0 0 0 0 0 0 0 0 0 0 0 0 0 0 0 0 0 0 0 0 0 0 0 0 0 0
-0 -0 0 0 0 0 0 0 0 0 0 0 0 0 0 0 0 0 0 0 0 0 0 0 0 0 0 0 0 0 0 0 0 0 0 0 0 0 0 0 0 0 0
0 -0 -0 0 0 0 0 0 0 0 0 0 0 0 0 0 0 0 0 0 0 0 0 0 0 0 0 0 0 0 0 0 0 0 0 0 0 0 0 0 0 0 0
0 0 0 0 0 0 0 0 0 0 0 0 0 0 0 0 0 0 0 0 0 0 0 0 0 0 0 0 0 0 0 0 0 0 0 0 0 0 0 0 0 0 0
0 0 0 0 0 0 0 0 0 0 0 0 0 0 0 0 0 0 0 0 0 0 0 0 0 0 0 0 0 0 0 0 0 0 0 0 0 0 0 0 0 0 0
0 0 0 0 0 0 0 0 0 0 0 0 0 0 0 0 0 0 0 0 0 0 0 0 0 0 0 0 0 0 0 0 0 0 0 0 0 0 0 0 0 0 0
0 0 0 0 0 0 0 0 0 0 0 0 0 0 0 0 0 0 0 0 0 0 0 0 0 0 0 0 0 0 0 0 0 0 0 0 0 0 0 0 0 0 0
0 0 0 0 0 0 0 0 0 0 0 0 0 0 0 0 0 0 0 0 0 0 0 0 0 0 0 0 0 0 0 0 0 0 0 0 0 0 0 0 0 0 0
0 0 0 0 0 0 0 0 0 0 0 0 0 0 0 0 0 0 0 0 0 0 0 0 0 0 0 0 0 0 0 0 0 0 0 0 0 0 0 0 0 0 0
0 0 0 0 0 0 0 0 0 0 0 0 0 0 0 0 0 0 0 0 0 0 0 0 0 0 0 0 0 0 0 0 0 0 0 0 0 0 0 0 0 0 0
0 0 0 0 0 0 0 0 0 0 0 0 0 0 0 0 0 0 0 0 0 0 0 0 0 0 0 0 0 0 0 0 0 0 0 0 0 0 0 0 0 0 0
Wind_Speed
1 1 2 3 3 3 3 3 3 2 2 2 2 2 2 2 2 2 3 3 3 3 2 2 3 3 2 2 3 2 3 3 3 3 3 3 3 4 3 3 3 4 3
2 2 3 3 3 3 3 3 2 2 2 2 1 1 1 1 1 2 3 4 4 3 2 2 2 2 2 3 3 2 2 3 3 2 2 4 5 4 4 3 3 4 3
3 2 2 2 3 3 2 2 2 2 2 2 2 2 3 3 3 3 3 4 4 4 3 3 2 2 2 2 3 2 2 2 2 2 2 2 1 3 4 3 3 4 3
2 2 2 2 2 2 2 3 3 3 3 3 3 3 2 1 2 2 2 3 4 4 4 3 3 3 2 2 2 2 1 1 1 2 2 1 1 0 3 4 3 4 3
3 3 3 3 2 2 3 3 4 4 3 3 4 4 3 1 1 2 3 4 4 4 4 4 3 4 3 3 3 3 2 1 1 1 1 1 1 1 1 2 4 4 3
3 2 2 3 3 3 3 4 4 4 3 4 3 3 3 2 3 3 3 3 3 3 5 4 4 3 3 3 3 3 2 1 1 1 0 0 0 0 1 1 2 3 3
3 4 4 3 3 3 3 3 4 3 3 3 3 3 3 3 2 1 2 2 2 3 4 4 3 3 3 3 3 3 3 3 2 1 0 0 1 1 1 1 1 2 3
3 4 4 4 3 3 3 3 3 3 2 3 2 2 2 2 1 1 1 1 1 1 3 3 3 3 3 4 3 3 3 3 3 3 2 1 1 1 1 1 1 1 2
4 4 4 3 3 3 3 3 4 2 2 2 2 2 2 2 2 2 2 1 1 2 3 3 3 4 3 3 3 3 3 3 3 3 3 2 2 1 1 1 1 1 1
4 4 4 4 3 3 2 3 3 3 2 2 1 2 1 1 2 2 2 2 2 2 3 3 4 4 4 3 3 2 3 3 3 2 3 3 2 2 1 1 1 1 2
6 5 4 3 3 3 3 3 2 2 2 2 1 2 1 1 2 2 1 1 2 2 3 2 3 3 3 3 3 3 3 3 4 4 3 4 3 2 2 1 1 1 2
5 5 4 3 3 3 3 3 2 2 2 2 2 2 1 2 2 1 1 1 2 2 2 2 2 3 3 3 3 3 3 3 4 4 4 4 4 4 3 2 2 2 2
5 4 4 4 4 3 3 3 2 2 2 2 2 1 1 1 1 0 1 1 1 2 2 2 2 3 3 3 2 2 2 2 3 3 3 4 4 4 3 3 3 2 2
6 6 5 4 4 3 3 3 2 2 2 2 2 1 1 1 1 0 1 1 1 1 2 2 2 2 2 2 2 2 2 3 3 3 3 3 3 4 4 3 3 3 2
7 7 6 5 4 4 3 3 2 2 2 2 2 1 1 0 0 1 1 1 1 1 1 2 2 3 2 2 3 2 2 3 4 4 4 4 6 6 4 3 3 2 2
9 8 7 6 6 5 4 3 3 2 2 2 2 1 1 1 0 0 1 1 1 1 1 2 2 3 3 7 7 4 2 3 3 4 5 5 6 7 8 8 7 5 3
10 9 9 7 7 6 5 5 3 2 3 2 1 1 1 1 0 0 0 1 1 1 2 2 2 3 5 8 8 7 3 3 3 4 4 5 6 7 4 7 9 7 8
10 9 8 7 6 5 4 4 3 3 3 2 1 1 1 1 0 0 0 1 1 1 1 2 3 3 6 9 8 8 3 3 4 4 4 5 6 6 6 5 6 6 6
9 8 8 7 6 6 5 5 4 3 3 2 1 1 2 1 1 0 1 1 1 1 2 2 3 3 6 9 8 7 2 3 4 4 5 5 5 10 10 6 6 7 7
7 7 7 6 6 6 6 6 4 4 3 3 2 2 2 2 1 2 2 1 1 2 2 3 3 3 5 8 9 8 2 3 4 4 5 8 9 12 12 6 5 7 8
7 8 8 7 7 7 7 6 5 4 4 3 2 1 1 2 2 1 1 1 1 1 2 3 3 3 5 7 9 9 3 3 4 4 4 5 12 14 14 11 6 10 10
7 8 8 7 5 7 8 6 6 4 3 3 2 1 1 1 1 1 1 1 0 1 2 3 4 3 4 6 8 10 9 7 4 5 5 6 13 15 15 10 11 14 12
8 7 8 7 5 6 7 8 6 4 4 3 2 1 1 1 1 1 1 1 1 1 2 2 3 4 4 5 9 10 11 10 6 5 10 12 14 13 10 11 14 11 5
8 7 8 8 6 6 6 6 5 5 5 4 3 2 1 1 1 1 1 1 2 2 2 3 4 4 4 4 4 4 5 7 6 5 8 12 12 8 8 10 8 5 5
7 8 9 9 8 7 6 5 5 6 5 4 3 2 2 2 2 2 2 3 4 4 4 4 4 4 5 7 9 7 5 4 5 6 4 4 5 5 5 5 5 5 4
7 7 7 7 7 7 6 5 5 6 5 4 3 2 2 2 2 2 3 4 6 8 9 9 7 6 9 11 12 12 11 11 11 7 4 5 5 6 6 6 6 5 5
Wind_Direction
328 61 79 93 94 86 95 99 98 90 91 77 70 54 20 352 353 358 4 6 8 16 25 16 8 11 19 6 5 13 20 10 358 24 7 358 10 25 21 9 11 9 5
68 65 72 80 93 97 95 93 103 97 84 91 104 110 96 3 337 347 9 13 13 10 19 23 10 7 11 13 16 26 24 11 18 47 43 3 351 354 5 5 14 7 3
152 131 102 94 90 94 111 111 106 88 76 84 84 63 42 23 15 8 1 358 9 17 20 16 12 10 21 7 1 19 51 22 6 37 92 86 330 323 334 354 4 3 7
148 143 131 117 114 120 100 94 91 81 72 79 90 89 81 49 349 336 343 354 12 19 20 21 20 18 16 7 353 27 41 69 11 5 35 116 169 107 332 332 342 352 2
161 159 155 143 121 109 103 96 88 77 70 74 91 96 87 75 3 6 18 14 9 14 17 22 21 19 16 9 6 14 30 56 61 10 9 40 46 100 152 312 325 338 339
138 130 118 111 98 89 93 95 91 73 65 74 78 101 105 89 59 36 27 13 3 5 12 18 19 15 14 13 10 13 23 23 39 34 79 138 147 225 171 250 304 317 315
141 135 128 123 116 108 106 103 100 79 64 73 71 85 101 98 91 74 44 26 10 2 356 7 8 8 5 12 19 24 18 12 15 358 316 251 232 212 184 194 273 311 312
155 153 152 148 144 134 126 120 112 98 82 80 73 68 81 90 91 92 80 54 9 332 340 356 5 6 11 18 22 23 8 12 11 8 1 339 304 261 213 197 196 318 326
168 162 153 152 154 150 150 146 135 116 100 93 85 71 74 85 92 79 65 48 12 359 3 7 10 7 12 18 25 24 8 6 1 355 359 356 331 325 279 228 199 187 286
171 165 161 166 165 159 146 135 135 135 126 109 98 92 78 89 97 81 55 33 11 10 16 16 16 14 13 16 25 15 2 15 1 353 1 353 335 336 329 291 240 212 205
180 176 173 168 153 136 135 137 138 125 117 114 100 84 71 91 95 80 45 23 11 12 15 9 17 15 11 9 18 10 10 11 360 358 358 343 332 337 333 323 290 248 211
174 169 163 152 146 147 147 151 156 152 157 148 124 106 84 94 90 63 20 20 12 5 6 11 17 11 8 5 10 358 2 0 349 342 345 337 338 335 326 322 306 279 244
163 158 158 163 168 167 164 166 172 172 165 148 133 116 104 101 116 14 353 9 15 9 9 13 5 354 349 350 349 347 344 339 328 326 328 322 331 324 317 312 306 293 291
171 169 172 177 177 172 169 169 179 173 159 145 140 149 180 181 201 286 344 349 354 358 349 347 340 333 330 328 333 339 334 326 321 316 312 311 308 298 304 311 308 303 301
179 180 181 180 177 172 171 167 170 163 146 140 147 183 192 133 77 16 337 339 335 327 325 341 340 332 321 323 327 318 315 313 317 317 309 303 307 311 310 312 305 305 292
189 185 180 178 181 181 177 166 164 167 150 153 172 173 123 101 84 329 342 343 327 326 342 332 325 325 324 330 332 322 301 300 303 305 307 307 308 314 320 315 308 298 288
188 185 184 185 184 182 174 171 173 153 141 144 141 128 136 136 241 309 25 315 299 314 322 315 317 309 308 322 330 326 313 290 288 290 296 305 312 318 307 308 312 304 294
186 186 182 181 179 172 167 157 144 141 136 129 126 129 137 157 185 96 293 286 284 282 289 298 303 305 312 328 332 330 329 293 286 283 278 281 291 295 298 297 299 290 288
184 181 177 172 165 167 163 144 140 140 136 149 170 182 171 167 158 228 268 269 263 279 278 284 296 301 308 323 327 331 318 304 297 291 287 285 282 294 303 298 295 296 292
168 163 157 151 159 168 154 145 152 152 173 192 195 188 171 164 187 227 248 248 241 257 278 292 290 287 294 313 324 328 308 303 301 300 295 297 298 302 305 292 282 288 288
162 156 155 163 173 164 153 155 161 186 200 188 174 172 181 182 200 209 235 261 268 291 297 298 299 293 293 310 321 322 313 286 293 298 298 295 305 306 303 297 274 275 286
158 158 160 168 167 161 159 164 188 200 175 158 159 185 209 221 187 169 265 302 287 296 298 304 307 300 299 307 314 319 316 309 292 290 290 291 303 306 306 299 286 288 292
164 163 162 161 165 171 170 177 196 176 161 157 178 210 218 227 208 191 223 277 276 270 286 289 292 297 300 304 314 317 317 313 303 286 294 302 306 308 306 300 299 297 285
168 162 158 164 178 185 187 189 180 169 162 173 195 207 209 236 247 230 213 217 243 255 269 273 277 285 292 291 294 295 303 307 307 301 300 306 307 299 292 300 302 288 268
169 167 172 179 186 184 190 186 172 163 167 182 199 211 218 227 243 249 236 232 236 232 243 249 251 265 280 280 289 296 292 290 287 301 302 305 306 303 298 295 292 285 280
169 172 179 182 184 182 188 187 178 170 170 184 204 212 218 229 235 255 289 268 258 274 270 266 265 264 266 285 294 297 299 301 303 309 297 294 292 290 288 291 292 285 275